Total_Precipitation_Accumulation
0.01 0.06 0.13 0.20 0.41 0.28 0.03 0.00 0.00 0.00 0.00 0.00 0.00 0.00 0.00 0.00 0.02 0.14 0.05 0.01 0.01 0.03 0.15 0.18 0.26 0.25 0.20 0.17 0.25 0.34 0.44 0.55 0.56 0.50 0.43 0.26 0.22 0.18 0.19 0.19 0.22 0.23 0.18 0.22 0.26 0.30 0.28 0.24 0.17
0.03 0.09 0.23 0.45 0.51 0.11 0.00 0.00 0.00 0.00 0.00 0.00 0.00 0.00 0.00 0.00 0.00 0.01 0.03 0.05 0.00 0.02 0.09 0.16 0.20 0.24 0.22 0.27 0.40 0.44 0.48 0.54 0.51 0.42 0.30 0.22 0.20 0.19 0.20 0.26 0.29 0.24 0.19 0.21 0.25 0.35 0.30 0.22 0.17
0.04 0.11 0.27 0.48 0.22 0.03 0.00 0.00 0.00 0.00 0.00 0.00 0.00 0.00 0.00 0.00 0.00 0.00 0.02 0.02 0.01 0.03 0.09 0.14 0.17 0.21 0.23 0.30 0.40 0.45 0.47 0.45 0.43 0.39 0.28 0.22 0.19 0.18 0.22 0.26 0.28 0.23 0.16 0.15 0.20 0.24 0.21 0.21 0.14
0.07 0.19 0.33 0.28 0.04 0.00 0.00 0.00 0.00 0.00 0.00 0.00 0.00 0.00 0.00 0.00 0.00 0.00 0.00 0.00 0.02 0.05 0.09 0.09 0.19 0.21 0.21 0.35 0.42 0.43 0.37 0.32 0.37 0.38 0.31 0.24 0.17 0.18 0.24 0.22 0.19 0.13 0.09 0.11 0.16 0.18 0.17 0.15 0.09
0.10 0.30 0.43 0.16 0.01 0.00 0.00 0.00 0.00 0.00 0.00 0.00 0.00 0.00 0.01 0.00 0.00 0.00 0.00 0.01 0.03 0.07 0.11 0.09 0.21 0.19 0.19 0.32 0.41 0.41 0.41 0.38 0.38 0.40 0.35 0.31 0.23 0.20 0.21 0.17 0.10 0.05 0.06 0.11 0.23 0.25 0.15 0.10 0.08
0.19 0.39 0.69 0.30 0.01 0.00 0.00 0.00 0.00 0.00 0.00 0.00 0.00 0.00 0.01 0.00 0.00 0.00 0.00 0.01 0.02 0.02 0.06 0.07 0.14 0.17 0.19 0.28 0.32 0.27 0.33 0.44 0.45 0.38 0.39 0.58 0.39 0.25 0.16 0.10 0.04 0.02 0.03 0.07 0.16 0.21 0.14 0.10 0.14
0.35 0.58 0.59 0.22 0.01 0.00 0.00 0.00 0.00 0.00 0.00 0.00 0.00 0.00 0.00 0.01 0.00 0.00 0.01 0.01 0.01 0.01 0.01 0.02 0.05 0.09 0.11 0.21 0.27 0.27 0.30 0.37 0.44 0.36 0.38 0.50 0.31 0.15 0.09 0.05 0.01 0.01 0.01 0.03 0.07 0.12 0.14 0.14 0.17
0.16 0.34 0.30 0.09 0.01 0.00 0.00 0.00 0.00 0.00 0.00 0.00 0.00 0.00 0.01 0.01 0.00 0.00 0.01 0.02 0.03 0.03 0.04 0.02 0.04 0.09 0.16 0.15 0.17 0.27 0.31 0.29 0.36 0.33 0.34 0.31 0.15 0.07 0.05 0.02 0.01 0.01 0.02 0.03 0.06 0.10 0.12 0.11 0.13
0.15 0.25 0.21 0.12 0.04 0.01 0.00 0.00 0.00 0.00 0.00 0.00 0.00 0.00 0.00 0.00 0.00 0.00 0.01 0.03 0.05 0.06 0.10 0.08 0.04 0.04 0.12 0.21 0.13 0.27 0.31 0.26 0.22 0.23 0.23 0.18 0.09 0.03 0.03 0.03 0.03 0.02 0.03 0.04 0.07 0.10 0.08 0.06 0.06
0.23 0.25 0.19 0.15 0.07 0.02 0.01 0.00 0.00 0.00 0.00 0.00 0.00 0.00 0.00 0.00 0.00 0.00 0.01 0.02 0.02 0.03 0.04 0.07 0.05 0.03 0.05 0.14 0.27 0.50 0.35 0.20 0.13 0.10 0.06 0.09 0.06 0.04 0.01 0.02 0.05 0.05 0.03 0.04 0.08 0.09 0.04 0.02 0.01
0.26 0.19 0.16 0.17 0.05 0.02 0.01 0.00 0.00 0.00 0.00 0.00 0.00 0.00 0.00 0.00 0.00 0.00 0.00 0.01 0.00 0.00 0.02 0.04 0.04 0.02 0.04 0.16 0.25 0.32 0.33 0.25 0.19 0.08 0.05 0.07 0.05 0.01 0.00 0.01 0.04 0.03 0.02 0.01 0.03 0.03 0.01 0.00 0.00
0.25 0.14 0.10 0.10 0.05 0.02 0.01 0.01 0.00 0.00 0.00 0.00 0.00 0.00 0.00 0.00 0.00 0.00 0.00 0.01 0.00 0.00 0.01 0.02 0.03 0.03 0.02 0.02 0.06 0.10 0.09 0.10 0.12 0.07 0.04 0.04 0.03 0.01 0.01 0.03 0.03 0.04 0.03 0.03 0.05 0.04 0.03 0.01 0.00
0.18 0.09 0.05 0.05 0.05 0.03 0.02 0.02 0.01 0.01 0.01 0.00 0.00 0.00 0.00 0.00 0.00 0.00 0.00 0.01 0.01 0.01 0.02 0.02 0.02 0.04 0.03 0.02 0.02 0.03 0.04 0.06 0.06 0.05 0.05 0.04 0.03 0.03 0.02 0.06 0.08 0.10 0.09 0.11 0.11 0.07 0.05 0.03 0.01
0.12 0.09 0.07 0.06 0.06 0.05 0.03 0.02 0.01 0.02 0.01 0.01 0.00 0.00 0.00 0.00 0.00 0.00 0.00 0.01 0.02 0.03 0.04 0.05 0.05 0.05 0.06 0.05 0.02 0.02 0.01 0.04 0.04 0.04 0.04 0.04 0.04 0.04 0.05 0.09 0.12 0.19 0.19 0.25 0.24 0.11 0.07 0.04 0.01
0.13 0.12 0.09 0.06 0.06 0.05 0.03 0.01 0.02 0.03 0.02 0.02 0.01 0.01 0.00 0.00 0.00 0.00 0.00 0.02 0.05 0.07 0.10 0.12 0.13 0.13 0.12 0.11 0.07 0.04 0.03 0.02 0.02 0.03 0.03 0.04 0.05 0.07 0.08 0.14 0.16 0.19 0.19 0.23 0.44 0.33 0.08 0.02 0.01
0.19 0.14 0.08 0.05 0.05 0.05 0.04 0.02 0.03 0.05 0.05 0.05 0.04 0.03 0.01 0.01 0.00 0.00 0.00 0.02 0.07 0.14 0.20 0.26 0.19 0.20 0.21 0.19 0.16 0.13 0.09 0.07 0.05 0.05 0.07 0.08 0.09 0.11 0.14 0.18 0.16 0.20 0.20 0.21 0.32 0.42 0.19 0.04 0.02
0.14 0.11 0.06 0.05 0.06 0.05 0.06 0.05 0.06 0.10 0.09 0.07 0.06 0.05 0.03 0.02 0.01 0.01 0.01 0.02 0.08 0.19 0.31 0.33 0.25 0.26 0.32 0.34 0.34 0.29 0.21 0.16 0.12 0.12 0.15 0.19 0.20 0.19 0.19 0.22 0.19 0.17 0.18 0.27 0.28 0.41 0.41 0.23 0.10
0.27 0.19 0.11 0.08 0.08 0.07 0.09 0.08 0.09 0.12 0.11 0.09 0.07 0.06 0.04 0.02 0.03 0.03 0.02 0.03 0.07 0.18 0.28 0.37 0.45 0.54 0.59 0.61 0.58 0.50 0.39 0.31 0.26 0.24 0.30 0.36 0.39 0.35 0.32 0.35 0.29 0.22 0.21 0.30 0.31 0.41 0.47 0.32 0.17
0.23 0.20 0.15 0.10 0.11 0.08 0.08 0.08 0.09 0.10 0.12 0.11 0.08 0.08 0.06 0.04 0.03 0.03 0.03 0.04 0.08 0.17 0.25 0.39 0.70 1.06 1.17 1.01 0.89 0.84 0.78 0.65 0.51 0.45 0.49 0.57 0.56 0.54 0.54 0.53 0.45 0.36 0.33 0.41 0.44 0.60 0.92 0.53 0.28
0.23 0.25 0.21 0.15 0.11 0.08 0.06 0.05 0.05 0.06 0.08 0.09 0.08 0.08 0.07 0.05 0.03 0.02 0.03 0.05 0.10 0.23 0.36 0.49 0.71 1.07 1.20 1.19 1.16 1.13 1.08 0.93 0.79 0.73 0.68 0.72 0.72 0.83 0.81 0.74 0.69 0.60 0.62 0.68 0.65 0.64 0.89 0.63 0.38
0.27 0.29 0.25 0.20 0.12 0.09 0.06 0.03 0.03 0.03 0.03 0.04 0.06 0.07 0.06 0.04 0.03 0.03 0.03 0.05 0.08 0.17 0.28 0.42 0.56 0.81 1.03 1.17 1.27 1.35 1.36 1.25 1.14 1.05 0.94 0.92 0.92 1.00 1.08 0.98 0.93 0.80 0.75 0.82 0.85 0.77 0.78 0.80 0.57
0.21 0.15 0.11 0.09 0.09 0.09 0.06 0.06 0.02 0.02 0.02 0.03 0.04 0.04 0.05 0.05 0.04 0.03 0.04 0.04 0.06 0.10 0.18 0.29 0.45 0.67 0.86 1.01 1.23 1.47 1.56 1.53 1.40 1.24 1.11 1.08 1.06 1.08 1.24 1.23 1.19 1.05 1.01 1.05 1.09 0.98 0.93 1.02 0.88
0.10 0.06 0.06 0.07 0.07 0.07 0.06 0.06 0.02 0.01 0.02 0.02 0.03 0.03 0.04 0.04 0.04 0.05 0.05 0.06 0.07 0.10 0.13 0.21 0.34 0.54 0.75 0.90 1.07 1.28 1.37 1.43 1.45 1.20 1.07 1.10 1.09 1.07 1.21 1.35 1.32 1.19 1.12 1.17 1.27 1.21 1.16 1.03 0.88
0.05 0.06 0.05 0.05 0.07 0.07 0.04 0.07 0.05 0.03 0.02 0.02 0.02 0.02 0.03 0.05 0.07 0.09 0.11 0.13 0.16 0.17 0.20 0.27 0.35 0.44 0.56 0.67 0.76 0.85 0.99 1.14 1.39 1.31 1.20 1.26 1.23 1.08 1.00 1.16 1.28 1.17 1.16 1.23 1.29 1.31 1.26 1.20 1.13
0.03 0.08 0.12 0.12 0.12 0.08 0.05 0.09 0.09 0.06 0.03 0.03 0.03 0.04 0.05 0.08 0.11 0.16 0.20 0.23 0.25 0.26 0.26 0.30 0.36 0.41 0.43 0.46 0.49 0.58 0.68 0.75 1.04 1.26 1.18 1.06 1.07 1.03 0.95 0.95 1.03 1.02 1.07 1.16 1.30 1.26 1.13 1.09 1.15
0.04 0.09 0.16 0.18 0.16 0.14 0.12 0.17 0.15 0.08 0.06 0.06 0.06 0.08 0.09 0.11 0.17 0.25 0.34 0.37 0.38 0.36 0.33 0.33 0.37 0.40 0.41 0.38 0.35 0.39 0.44 0.47 0.54 0.69 0.78 0.76 0.73 0.79 0.75 0.74 0.82 0.92 1.02 1.07 1.11 1.07 1.03 0.98 0.97
0.07 0.10 0.13 0.19 0.16 0.16 0.16 0.22 0.21 0.12 0.11 0.12 0.11 0.14 0.17 0.21 0.30 0.40 0.48 0.51 0.47 0.43 0.36 0.33 0.37 0.43 0.43 0.40 0.38 0.36 0.35 0.38 0.45 0.44 0.50 0.63 0.62 0.59 0.56 0.55 0.62 0.74 0.85 0.94 1.00 0.99 0.97 0.92 0.89
0.05 0.09 0.16 0.26 0.29 0.24 0.23 0.31 0.31 0.24 0.24 0.22 0.22 0.23 0.30 0.37 0.43 0.51 0.58 0.60 0.55 0.46 0.34 0.29 0.30 0.36 0.49 0.60 0.55 0.46 0.43 0.47 0.67 0.70 0.50 0.47 0.54 0.53 0.48 0.48 0.54 0.64 0.75 0.85 0.88 0.91 0.93 0.90 0.89
0.13 0.20 0.25 0.32 0.34 0.41 0.47 0.51 0.45 0.41 0.40 0.40 0.39 0.39 0.47 0.54 0.54 0.57 0.61 0.63 0.60 0.46 0.34 0.29 0.27 0.31 0.37 0.40 0.41 0.41 0.48 0.54 0.73 0.91 0.80 0.56 0.46 0.44 0.43 0.40 0.43 0.50 0.56 0.67 0.76 0.82 0.84 0.83 0.88
0.23 0.34 0.48 0.65 0.61 0.56 0.66 0.67 0.53 0.43 0.44 0.45 0.43 0.39 0.43 0.51 0.53 0.55 0.56 0.53 0.48 0.37 0.29 0.24 0.22 0.27 0.33 0.33 0.31 0.33 0.39 0.49 0.52 0.52 0.54 0.44 0.29 0.23 0.26 0.28 0.28 0.35 0.44 0.49 0.53 0.60 0.64 0.66 0.70